DAL2167 KCLE-KCMH

Flight info

Callsign DAL2167
Flight time 0h 28m
Altitude 14000
Route LBRON WAAHU BUGZZ CBUSS2
Aircraft A20N/M-SDE2E3FGHIRWXY/LB1

Departure

Time 2026-05-09 00:07
Airport Cleveland Hopkins International Airport (KCLE)

Arrival

Time 2026-05-09 00:36
Airport John Glenn Columbus International Airport (KCMH)
Time Latitude Longitude Altitude Speed Heading
2026-05-08 23:41 41.41176 -81.84000 797 ft 0 kts 190°
2026-05-08 23:57 41.41178 -81.83999 796 ft 1 kts 190°
2026-05-08 23:57 41.41185 -81.83997 788 ft 1 kts 190°
2026-05-08 23:57 41.41193 -81.83996 798 ft 1 kts 190°
2026-05-08 23:57 41.41201 -81.83994 800 ft 1 kts 190°
2026-05-08 23:58 41.41208 -81.83992 798 ft 1 kts 190°
2026-05-08 23:58 41.41216 -81.83990 797 ft 1 kts 190°
2026-05-08 23:58 41.41224 -81.83988 797 ft 1 kts 190°
2026-05-08 23:58 41.41231 -81.83987 797 ft 1 kts 190°
2026-05-08 23:59 41.41239 -81.83985 797 ft 1 kts 206°
2026-05-08 23:59 41.41244 -81.83982 797 ft 1 kts 227°
2026-05-08 23:59 41.41247 -81.83978 797 ft 0 kts 245°
2026-05-09 00:03 41.41246 -81.83981 797 ft 3 kts 246°
2026-05-09 00:04 41.41262 -81.84044 798 ft 9 kts 324°
2026-05-09 00:04 41.41334 -81.84068 799 ft 12 kts 349°
2026-05-09 00:04 41.41406 -81.84098 799 ft 11 kts 344°
2026-05-09 00:04 41.41443 -81.84121 798 ft 0 kts 327°
2026-05-09 00:05 41.41448 -81.84126 798 ft 3 kts 327°
2026-05-09 00:05 41.41482 -81.84157 798 ft 8 kts 322°
2026-05-09 00:05 41.41514 -81.84198 798 ft 1 kts 306°
2026-05-09 00:06 41.41524 -81.84227 797 ft 7 kts 288°
2026-05-09 00:06 41.41519 -81.84296 796 ft 8 kts 246°
2026-05-09 00:06 41.41455 -81.84370 795 ft 30 kts 214°
2026-05-09 00:06 41.41141 -81.84828 795 ft 102 kts 227°
2026-05-09 00:07 41.40550 -81.85742 798 ft 155 kts 230°
2026-05-09 00:07 41.39858 -81.86911 1260 ft 164 kts 231°
2026-05-09 00:07 41.39166 -81.88158 1922 ft 170 kts 234°
2026-05-09 00:07 41.38453 -81.89399 2696 ft 168 kts 219°
2026-05-09 00:08 41.37315 -81.89955 3247 ft 188 kts 194°
2026-05-09 00:08 41.35940 -81.90145 3650 ft 209 kts 192°
2026-05-09 00:08 41.34422 -81.90337 4000 ft 229 kts 192°
2026-05-09 00:08 41.32766 -81.90528 4351 ft 247 kts 192°
2026-05-09 00:09 41.31039 -81.90717 5016 ft 250 kts 192°
2026-05-09 00:09 41.29289 -81.90908 5631 ft 255 kts 192°
2026-05-09 00:09 41.27475 -81.91116 6040 ft 265 kts 192°
2026-05-09 00:09 41.25665 -81.91364 6766 ft 257 kts 199°
2026-05-09 00:10 41.24003 -81.92156 7290 ft 254 kts 211°
2026-05-09 00:10 41.22422 -81.93207 7807 ft 255 kts 213°
2026-05-09 00:10 41.20841 -81.94297 8327 ft 257 kts 212°
2026-05-09 00:10 41.19232 -81.95364 8827 ft 260 kts 211°
2026-05-09 00:11 41.17588 -81.96405 9263 ft 263 kts 210°
2026-05-09 00:11 41.15918 -81.97430 9695 ft 266 kts 210°
2026-05-09 00:11 41.14228 -81.98453 10093 ft 268 kts 210°
2026-05-09 00:11 41.12498 -81.99499 10229 ft 279 kts 210°
2026-05-09 00:12 41.10718 -82.00575 10331 ft 290 kts 210°
2026-05-09 00:12 41.08848 -82.01703 10417 ft 300 kts 210°
2026-05-09 00:12 41.06917 -82.02864 10487 ft 309 kts 209°
2026-05-09 00:12 41.04962 -82.04034 10762 ft 309 kts 209°
2026-05-09 00:13 41.02989 -82.05215 10926 ft 313 kts 209°
2026-05-09 00:13 41.00992 -82.06410 11127 ft 315 kts 210°
2026-05-09 00:13 40.98993 -82.07607 11331 ft 316 kts 209°
2026-05-09 00:13 40.96985 -82.08814 11498 ft 318 kts 211°
2026-05-09 00:14 40.95070 -82.10237 11697 ft 315 kts 218°
2026-05-09 00:14 40.93342 -82.11929 11875 ft 314 kts 222°
2026-05-09 00:14 40.91564 -82.13746 11714 ft 322 kts 220°
2026-05-09 00:14 40.89792 -82.15531 12197 ft 318 kts 221°
2026-05-09 00:15 40.88031 -82.17298 12410 ft 318 kts 222°
2026-05-09 00:15 40.86265 -82.19078 12547 ft 320 kts 222°
2026-05-09 00:15 40.84487 -82.20870 12704 ft 322 kts 222°
2026-05-09 00:15 40.82698 -82.22669 12884 ft 323 kts 222°
2026-05-09 00:16 40.80905 -82.24471 13057 ft 325 kts 222°
2026-05-09 00:16 40.79103 -82.26278 13219 ft 326 kts 222°
2026-05-09 00:16 40.77293 -82.28092 13405 ft 328 kts 222°
2026-05-09 00:16 40.75475 -82.29914 13578 ft 329 kts 223°
2026-05-09 00:17 40.73637 -82.31760 13558 ft 336 kts 222°
2026-05-09 00:17 40.71771 -82.33635 13312 ft 348 kts 222°
2026-05-09 00:17 40.69815 -82.35595 13065 ft 358 kts 221°
2026-05-09 00:17 40.67822 -82.37584 13007 ft 360 kts 221°
2026-05-09 00:18 40.65830 -82.39565 12937 ft 356 kts 221°
2026-05-09 00:18 40.63784 -82.41393 12866 ft 356 kts 215°
2026-05-09 00:18 40.61573 -82.42873 12808 ft 357 kts 208°
2026-05-09 00:18 40.59247 -82.44043 12725 ft 358 kts 206°
2026-05-09 00:19 40.56916 -82.45183 12498 ft 358 kts 205°
2026-05-09 00:19 40.54522 -82.46120 12254 ft 362 kts 200°
2026-05-09 00:19 40.52077 -82.46999 12109 ft 362 kts 200°
2026-05-09 00:19 40.49693 -82.47853 11990 ft 348 kts 200°
2026-05-09 00:20 40.47421 -82.48665 11814 ft 328 kts 201°
2026-05-09 00:20 40.45287 -82.49428 11630 ft 307 kts 201°
2026-05-09 00:20 40.43283 -82.50148 11495 ft 291 kts 201°
2026-05-09 00:20 40.41381 -82.50836 11331 ft 278 kts 201°
2026-05-09 00:21 40.39527 -82.51511 10772 ft 274 kts 201°
2026-05-09 00:21 40.37711 -82.52174 10276 ft 268 kts 201°
2026-05-09 00:21 40.35925 -82.52824 10020 ft 268 kts 201°
2026-05-09 00:21 40.34155 -82.53537 9803 ft 263 kts 205°
2026-05-09 00:22 40.32542 -82.54493 9605 ft 253 kts 215°
2026-05-09 00:22 40.31190 -82.55867 9348 ft 243 kts 224°
2026-05-09 00:22 40.29674 -82.56918 8849 ft 255 kts 198°
2026-05-09 00:22 40.27884 -82.57076 8446 ft 260 kts 186°
2026-05-09 00:23 40.26086 -82.57080 8047 ft 257 kts 188°
2026-05-09 00:23 40.24318 -82.57276 7677 ft 252 kts 194°
2026-05-09 00:23 40.22643 -82.57655 7551 ft 237 kts 197°
2026-05-09 00:23 40.21075 -82.58123 7464 ft 224 kts 200°
2026-05-09 00:24 40.19612 -82.58616 7296 ft 212 kts 201°
2026-05-09 00:24 40.18192 -82.59123 6970 ft 210 kts 201°
2026-05-09 00:24 40.16807 -82.59626 6701 ft 208 kts 201°
2026-05-09 00:24 40.15413 -82.60127 6433 ft 208 kts 199°
2026-05-09 00:25 40.13952 -82.60072 6148 ft 221 kts 168°
2026-05-09 00:25 40.12653 -82.58895 5871 ft 240 kts 136°
2026-05-09 00:25 40.11651 -82.57124 5595 ft 242 kts 133°
2026-05-09 00:25 40.10680 -82.55329 5305 ft 241 kts 132°
2026-05-09 00:26 40.09716 -82.53545 5061 ft 238 kts 132°
2026-05-09 00:26 40.08792 -82.51820 4989 ft 225 kts 133°
2026-05-09 00:26 40.07931 -82.50188 4995 ft 217 kts 132°
2026-05-09 00:26 40.07036 -82.48579 4987 ft 215 kts 142°
2026-05-09 00:27 40.05831 -82.47614 4995 ft 200 kts 169°
2026-05-09 00:27 40.04510 -82.47076 4987 ft 198 kts 171°
2026-05-09 00:27 40.03190 -82.46560 4987 ft 198 kts 171°
2026-05-09 00:27 40.01883 -82.46040 4985 ft 196 kts 172°
2026-05-09 00:28 40.00572 -82.45695 4976 ft 186 kts 193°
2026-05-09 00:28 39.99423 -82.46364 4988 ft 182 kts 228°
2026-05-09 00:28 39.98754 -82.47710 4985 ft 179 kts 242°
2026-05-09 00:28 39.98256 -82.49187 4986 ft 179 kts 253°
2026-05-09 00:29 39.98052 -82.50806 4992 ft 181 kts 255°
2026-05-09 00:29 39.97609 -82.52330 4996 ft 181 kts 251°
2026-05-09 00:29 39.97544 -82.53964 5001 ft 183 kts 271°
2026-05-09 00:29 39.97710 -82.55604 4995 ft 182 kts 274°
2026-05-09 00:30 39.97920 -82.57221 4837 ft 181 kts 276°
2026-05-09 00:30 39.98190 -82.58831 4606 ft 182 kts 281°
2026-05-09 00:30 39.98514 -82.60442 4545 ft 183 kts 276°
2026-05-09 00:30 39.98698 -82.62064 4342 ft 180 kts 271°
2026-05-09 00:31 39.98789 -82.63703 4015 ft 183 kts 271°
2026-05-09 00:31 39.98882 -82.65340 3894 ft 183 kts 271°
2026-05-09 00:31 39.98975 -82.66998 3810 ft 180 kts 271°
2026-05-09 00:31 39.99066 -82.68602 3639 ft 175 kts 271°
2026-05-09 00:32 39.99155 -82.70173 3447 ft 173 kts 271°
2026-05-09 00:32 39.99243 -82.71740 3241 ft 176 kts 271°
2026-05-09 00:32 39.99333 -82.73332 3025 ft 175 kts 271°
2026-05-09 00:32 39.99421 -82.74889 2799 ft 173 kts 271°
2026-05-09 00:33 39.99512 -82.76487 2559 ft 175 kts 271°
2026-05-09 00:33 39.99601 -82.78057 2323 ft 169 kts 272°
2026-05-09 00:33 39.99681 -82.79461 2114 ft 146 kts 273°
2026-05-09 00:33 39.99751 -82.80693 1920 ft 128 kts 272°
2026-05-09 00:34 39.99814 -82.81822 1750 ft 124 kts 272°
2026-05-09 00:34 39.99876 -82.82919 1593 ft 122 kts 273°
2026-05-09 00:34 39.99942 -82.84037 1491 ft 123 kts 274°
2026-05-09 00:34 40.00005 -82.85123 1298 ft 120 kts 272°
2026-05-09 00:35 40.00065 -82.86220 1118 ft 122 kts 274°
2026-05-09 00:35 40.00124 -82.87325 937 ft 121 kts 273°
2026-05-09 00:35 40.00187 -82.88384 824 ft 111 kts 274°
2026-05-09 00:35 40.00234 -82.89256 815 ft 69 kts 274°
2026-05-09 00:36 40.00254 -82.89600 816 ft 30 kts 274°
2026-05-09 00:36 40.00227 -82.89752 819 ft 13 kts 219°
2026-05-09 00:36 40.00183 -82.89769 820 ft 0 kts 178°